Temperature
-3 -3 -3 -3 -3 -3 -3 -2 -2 -2 -2 -2 -2 -2 -2 -2 -2 -2 -1 -1 -1 -1 -1 -1 -1 -0 -1 -0 -0 -0 -0 -0 -0 0 1 1 2 2 2 2 3 3 3
-4 -4 -4 -4 -4 -3 -3 -3 -3 -3 -3 -2 -2 -2 -2 -2 -2 -2 -2 -2 -2 -1 -1 -1 -1 -1 -1 -1 -1 -1 -1 -1 -1 -0 -0 0 1 1 1 2 2 2 3
-5 -5 -5 -4 -4 -4 -4 -4 -4 -4 -3 -3 -3 -3 -3 -3 -3 -3 -3 -3 -2 -2 -2 -2 -2 -2 -1 -1 -1 -1 -1 -1 -1 -1 -1 -0 -0 0 1 1 1 2 2
-6 -6 -5 -5 -5 -5 -5 -5 -4 -4 -4 -4 -4 -4 -3 -3 -3 -3 -3 -3 -3 -3 -2 -2 -2 -2 -2 -2 -2 -2 -2 -2 -2 -2 -2 -1 -1 -0 -0 0 0 1 1
-7 -6 -6 -6 -6 -6 -5 -5 -5 -5 -5 -4 -4 -4 -4 -4 -4 -4 -4 -4 -4 -4 -3 -3 -3 -3 -3 -3 -2 -2 -2 -3 -3 -2 -2 -2 -2 -1 -1 -0 -0 0 0
-7 -7 -7 -7 -6 -6 -6 -6 -6 -5 -5 -5 -5 -5 -5 -4 -4 -4 -4 -4 -4 -4 -4 -4 -4 -3 -3 -3 -3 -3 -3 -3 -3 -3 -3 -2 -2 -2 -2 -1 -1 -1 -1
-8 -8 -8 -7 -7 -7 -7 -7 -6 -6 -6 -6 -5 -5 -5 -5 -5 -5 -5 -5 -5 -5 -5 -5 -4 -4 -4 -4 -4 -3 -3 -3 -3 -3 -3 -3 -2 -2 -2 -2 -2 -1 -1
-8 -8 -8 -8 -8 -8 -7 -7 -7 -7 -6 -6 -6 -6 -6 -5 -5 -5 -5 -5 -5 -5 -5 -5 -5 -5 -5 -5 -4 -4 -4 -4 -4 -4 -3 -3 -3 -3 -3 -2 -2 -2 -2
-9 -9 -9 -9 -8 -8 -8 -8 -8 -7 -7 -7 -7 -6 -6 -6 -6 -6 -6 -6 -6 -6 -6 -6 -6 -5 -5 -5 -5 -5 -5 -4 -4 -4 -4 -4 -4 -3 -3 -3 -3 -3 -3
-10 -9 -9 -9 -9 -9 -9 -8 -8 -8 -7 -7 -7 -7 -7 -7 -6 -6 -7 -7 -7 -6 -6 -6 -6 -6 -6 -6 -6 -5 -5 -5 -5 -4 -4 -4 -4 -4 -4 -4 -4 -4 -4
-10 -10 -10 -10 -10 -9 -9 -9 -9 -8 -8 -8 -8 -8 -7 -7 -7 -7 -7 -7 -7 -7 -6 -6 -6 -6 -6 -6 -6 -6 -6 -5 -5 -5 -5 -5 -5 -5 -5 -4 -4 -4 -4
-10 -10 -10 -10 -10 -10 -10 -9 -9 -9 -9 -9 -8 -8 -8 -8 -8 -8 -7 -7 -7 -7 -7 -7 -7 -7 -7 -7 -6 -6 -6 -6 -6 -6 -6 -5 -5 -5 -5 -5 -5 -5 -5
-11 -11 -11 -11 -10 -10 -10 -10 -10 -10 -9 -9 -9 -9 -9 -9 -8 -8 -8 -8 -8 -8 -8 -7 -7 -7 -7 -7 -7 -7 -6 -6 -6 -6 -6 -6 -6 -6 -6 -6 -6 -5 -5
-11 -11 -11 -11 -11 -11 -11 -11 -11 -11 -10 -10 -10 -10 -9 -9 -9 -9 -9 -8 -8 -8 -8 -8 -8 -8 -8 -7 -7 -7 -7 -7 -7 -7 -7 -6 -6 -6 -6 -6 -6 -6 -6
-12 -11 -11 -11 -11 -11 -11 -11 -11 -11 -11 -11 -11 -11 -10 -10 -10 -9 -9 -9 -9 -9 -8 -8 -8 -8 -8 -8 -8 -8 -7 -7 -7 -7 -7 -7 -7 -7 -7 -7 -7 -7 -7
-12 -12 -12 -12 -12 -12 -12 -12 -12 -12 -12 -11 -11 -11 -11 -10 -10 -10 -10 -9 -9 -9 -9 -9 -9 -9 -9 -9 -8 -8 -8 -8 -8 -8 -8 -8 -8 -8 -8 -8 -7 -7 -7
-12 -12 -12 -12 -12 -12 -12 -12 -12 -12 -12 -12 -12 -11 -11 -11 -10 -10 -10 -10 -10 -10 -9 -10 -10 -9 -9 -9 -9 -9 -9 -9 -8 -8 -8 -8 -8 -8 -8 -8 -8 -8 -8
-13 -13 -13 -13 -13 -13 -13 -13 -13 -13 -12 -12 -12 -12 -12 -11 -11 -11 -11 -10 -10 -10 -10 -10 -10 -10 -10 -10 -10 -10 -9 -9 -9 -9 -9 -9 -9 -9 -9 -9 -9 -8 -8
-13 -13 -13 -13 -13 -13 -13 -13 -13 -13 -13 -13 -13 -12 -12 -12 -12 -12 -11 -11 -11 -11 -11 -11 -11 -11 -11 -11 -10 -10 -10 -10 -10 -10 -10 -10 -9 -9 -9 -9 -9 -9 -9
-13 -13 -14 -14 -14 -13 -13 -14 -14 -14 -14 -14 -13 -13 -13 -12 -12 -12 -12 -12 -12 -12 -12 -12 -11 -11 -11 -11 -11 -11 -11 -11 -10 -10 -10 -10 -10 -10 -10 -10 -10 -10 -9
-14 -14 -14 -14 -14 -14 -14 -14 -14 -14 -14 -14 -14 -14 -14 -13 -13 -13 -13 -13 -13 -13 -12 -12 -12 -12 -12 -11 -11 -11 -11 -11 -11 -11 -11 -11 -10 -10 -10 -10 -10 -10 -10
-14 -14 -14 -14 -14 -14 -14 -14 -14 -14 -14 -14 -14 -14 -14 -14 -14 -14 -13 -13 -13 -13 -13 -13 -12 -12 -12 -12 -12 -12 -12 -12 -12 -11 -11 -11 -11 -11 -11 -11 -11 -11 -11
-14 -14 -14 -14 -14 -14 -14 -14 -15 -15 -15 -15 -15 -15 -14 -14 -14 -14 -14 -14 -14 -13 -13 -13 -13 -13 -12 -12 -12 -12 -12 -12 -12 -12 -12 -12 -11 -11 -11 -11 -11 -11 -11
-14 -15 -15 -15 -15 -15 -15 -15 -15 -15 -15 -15 -15 -15 -15 -15 -15 -14 -14 -14 -14 -14 -14 -13 -13 -13 -13 -13 -12 -12 -12 -12 -12 -12 -12 -12 -12 -12 -12 -12 -12 -12 -11
-15 -15 -15 -15 -15 -15 -15 -15 -15 -15 -15 -15 -15 -15 -15 -15 -15 -15 -14 -14 -14 -14 -14 -14 -14 -13 -13 -13 -13 -13 -12 -12 -12 -12 -12 -12 -12 -12 -12 -12 -12 -12 -12
-15 -15 -15 -15 -15 -15 -15 -15 -15 -15 -15 -15 -15 -15 -15 -15 -15 -15 -15 -15 -14 -14 -14 -14 -14 -14 -13 -13 -13 -13 -13 -13 -13 -13 -13 -13 -12 -12 -12 -12 -12 -12 -12
Wind_Speed
6 6 6 5 6 5 5 6 6 6 6 6 7 7 7 7 7 7 7 7 7 7 7 7 8 7 6 6 5 6 6 6 7 5 4 4 5 4 4 4 5 5 6
7 7 6 6 6 6 6 6 6 7 6 7 7 7 7 7 7 7 8 8 8 8 8 8 8 7 8 6 6 7 6 7 6 7 5 4 5 4 4 4 4 5 6
8 7 7 7 7 7 7 7 7 7 7 7 7 7 7 7 7 8 8 8 9 9 8 9 8 8 8 7 7 7 6 6 6 6 5 4 4 4 3 3 4 4 5
8 8 8 8 8 8 8 7 7 7 7 7 7 7 8 8 8 8 8 9 9 9 8 8 8 9 9 8 7 8 7 7 6 6 5 5 5 4 4 3 3 4 4
8 8 8 8 8 8 8 8 7 7 7 7 7 7 7 7 7 8 8 8 8 8 8 8 8 9 9 8 7 7 7 7 7 7 6 6 5 5 5 4 4 4 4
8 8 9 9 8 8 8 8 8 7 7 7 7 7 7 6 9 10 9 8 7 8 8 8 8 9 10 11 11 10 9 8 8 7 7 8 8 7 6 5 4 4 4
8 8 8 8 9 9 8 8 8 8 7 7 7 7 7 8 10 10 10 7 7 7 8 7 7 7 9 8 9 11 11 11 10 9 9 9 8 7 7 7 7 6 5
8 8 8 8 9 9 8 8 8 7 7 7 7 7 7 8 9 9 9 8 7 7 8 8 8 8 7 8 7 8 8 9 10 9 9 8 7 7 7 7 6 4 3
8 9 9 9 9 9 9 9 8 7 7 7 7 7 7 7 8 8 8 6 6 7 7 7 8 8 9 9 8 8 8 8 9 10 10 10 10 11 9 5 5 5 4
10 10 9 9 9 9 9 9 8 7 7 7 6 6 7 7 7 8 8 5 6 6 6 7 9 10 10 10 9 8 9 7 6 6 7 8 9 9 10 9 7 7 4
10 10 10 9 9 9 8 8 7 7 7 6 6 6 6 7 7 8 8 5 5 6 5 6 6 10 11 11 10 9 9 7 6 6 6 6 6 6 6 7 7 6 7
9 9 9 9 8 7 7 7 7 6 6 6 5 6 5 5 6 7 8 8 6 6 6 5 6 8 10 11 9 9 9 7 6 5 5 5 5 5 4 5 6 6 6
9 9 9 9 8 7 7 7 6 5 4 5 5 5 5 4 5 8 8 8 7 5 5 6 6 7 7 7 8 8 7 5 5 5 5 5 4 4 3 3 4 4 4
9 9 9 8 8 7 6 5 5 5 5 5 5 5 5 5 4 4 5 5 6 6 5 5 6 6 4 4 4 4 4 4 4 5 4 3 3 3 4 4 4 4 3
9 8 8 7 7 7 6 5 5 5 5 5 5 5 5 5 6 7 5 3 3 3 3 2 2 2 2 2 2 2 2 3 3 3 3 3 3 3 4 4 4 4 4
8 8 7 6 6 6 6 6 7 6 9 9 8 7 6 8 9 7 5 4 3 3 3 2 2 2 3 3 3 3 3 3 3 3 3 3 4 4 4 4 4 4 5
8 8 7 6 6 6 6 6 6 7 7 8 9 9 8 8 8 7 6 4 3 2 2 2 2 2 2 2 2 3 3 3 2 3 3 3 3 3 4 4 4 4 4
7 8 7 6 6 6 6 5 5 6 6 6 7 9 9 8 8 7 6 4 3 2 2 2 2 2 2 2 2 2 2 2 2 2 2 2 3 3 3 4 4 4 4
7 6 6 6 6 6 5 5 5 5 5 6 6 6 7 7 7 6 5 2 2 2 2 2 2 2 2 2 2 2 2 2 2 2 2 2 3 3 3 3 4 5 4
6 8 8 6 5 5 5 5 5 5 5 5 5 5 5 5 4 4 3 2 2 3 3 3 2 2 3 3 2 2 2 2 2 2 2 2 2 3 3 4 4 4 4
6 7 9 7 5 5 5 5 5 5 5 5 5 6 7 4 4 4 4 3 3 3 3 3 3 2 2 2 2 2 3 3 3 2 2 2 2 2 2 3 3 3 3
5 6 6 6 5 5 5 4 4 4 5 5 5 5 7 4 4 3 4 4 4 3 3 3 3 3 3 3 3 3 3 3 3 3 3 3 3 3 2 3 3 3 3
5 6 6 5 5 6 5 4 4 4 5 5 5 5 4 4 4 4 4 4 4 4 4 3 3 3 3 3 3 4 4 4 3 3 3 3 3 3 3 3 4 4 4
5 6 6 5 5 4 4 5 4 5 5 5 5 5 4 4 4 5 4 4 4 4 4 4 4 4 5 4 4 4 5 5 5 5 5 4 3 3 3 3 4 4 4
5 5 5 5 5 5 5 5 5 5 5 5 5 5 5 4 4 5 4 4 5 4 5 5 4 4 5 5 5 6 6 6 6 5 5 4 4 4 4 4 4 4 4
5 5 5 5 5 5 5 5 5 5 5 5 5 5 5 5 5 5 5 4 4 4 5 5 5 5 6 6 7 7 7 7 7 6 5 4 4 4 4 4 4 4 4
Wind_Direction
326 320 315 308 300 289 280 276 275 269 263 258 256 255 252 248 245 242 241 240 241 242 241 242 245 245 242 235 231 232 236 239 246 258 263 263 256 249 248 244 241 234 226
324 321 316 310 303 294 287 284 280 273 267 261 258 256 254 253 248 242 241 240 239 241 240 241 243 242 241 238 233 232 234 236 239 248 254 254 256 252 248 244 243 236 230
324 320 317 313 308 300 296 289 282 274 267 263 257 254 253 252 251 247 243 243 243 243 241 240 241 239 237 234 234 234 234 233 234 239 248 253 255 246 252 257 253 243 237
322 319 316 313 307 301 297 293 286 279 270 264 260 258 257 254 250 249 247 246 246 244 241 240 239 237 237 235 233 233 233 233 233 234 237 242 245 241 238 241 254 248 246
320 318 315 311 306 302 299 296 291 284 277 270 265 263 261 256 250 251 252 249 243 243 242 239 239 240 241 236 234 230 228 230 231 231 232 238 235 226 230 234 245 252 255
318 316 316 314 311 307 303 299 293 284 279 272 264 263 262 258 258 255 255 247 246 243 242 240 239 238 236 235 239 238 234 230 229 231 234 233 234 234 234 229 236 243 253
317 316 316 314 312 309 305 299 294 288 281 274 268 266 265 264 263 261 254 246 245 244 242 240 240 237 235 234 235 236 237 238 238 237 238 239 237 232 230 230 230 234 248
319 319 319 317 312 309 305 300 295 291 282 278 276 271 269 268 267 263 260 247 247 246 243 240 241 240 234 230 231 234 238 239 239 239 243 246 244 237 230 234 244 249 263
323 320 317 314 310 308 305 301 295 291 285 281 279 275 272 273 264 264 266 254 250 250 247 242 240 242 235 229 230 235 240 243 237 236 242 243 242 238 230 227 223 222 242
322 317 314 311 307 305 303 299 294 288 282 283 279 276 271 272 270 265 264 254 250 250 247 242 239 240 239 234 233 234 237 240 238 239 241 242 237 231 228 226 221 219 227
319 316 315 313 308 303 303 301 296 291 286 282 281 279 274 273 274 267 265 255 251 250 248 242 237 236 241 240 238 238 239 240 236 235 237 237 235 230 224 221 224 225 223
318 317 316 314 312 310 310 309 304 298 292 285 282 283 280 280 279 275 269 263 259 249 249 246 240 240 243 245 241 241 241 239 234 230 229 225 224 227 226 223 224 231 241
319 318 316 315 313 312 311 311 311 307 298 297 293 289 291 290 286 283 274 265 257 254 255 251 245 242 242 245 242 240 237 234 229 225 228 230 226 222 219 219 222 223 240
318 317 316 315 315 316 313 311 311 312 308 303 300 298 298 297 295 292 279 267 257 255 258 247 239 239 239 246 248 244 240 235 232 229 228 230 221 211 214 213 217 213 231
317 316 317 316 315 316 314 310 307 302 300 300 300 299 298 296 298 297 293 280 269 264 250 242 238 236 239 245 249 249 239 232 234 227 220 221 219 218 221 218 219 221 228
319 320 319 318 317 315 314 313 312 307 312 309 306 302 296 295 302 305 305 298 282 255 234 232 232 233 236 243 246 247 241 236 237 229 219 218 222 222 224 220 217 218 222
315 317 317 318 317 317 318 319 319 319 317 316 320 319 318 319 318 316 310 303 301 252 229 231 234 238 242 245 252 253 252 248 240 230 226 225 224 223 220 218 217 221 226
314 316 316 314 315 314 314 314 313 316 320 320 319 322 323 326 328 332 329 318 313 306 261 247 246 249 250 252 255 256 253 248 237 233 233 230 226 221 222 224 223 223 227
316 318 316 312 311 313 315 314 312 312 313 316 321 326 332 328 328 335 338 326 311 308 294 271 259 252 250 251 256 254 247 247 250 239 235 235 232 227 229 233 233 231 231
313 315 317 314 312 313 316 315 315 315 314 314 316 320 324 323 326 330 331 320 303 298 300 288 269 259 252 251 251 249 245 241 244 244 241 238 238 233 230 233 234 234 236
311 313 316 314 315 314 312 311 310 310 311 311 312 317 324 320 317 317 316 308 300 295 293 290 279 266 259 253 249 245 246 245 243 240 244 244 242 242 241 239 238 237 239
309 311 314 312 312 312 312 311 310 310 310 309 309 315 323 322 315 309 306 305 301 297 294 287 276 269 260 252 246 244 243 246 248 244 242 245 245 239 237 237 238 237 233
309 310 312 312 311 311 313 312 311 309 310 311 313 314 316 313 308 304 300 298 298 295 291 284 276 272 269 258 251 245 241 243 246 244 241 239 237 237 234 231 231 233 233
306 307 309 310 311 309 307 308 307 307 307 308 310 311 311 310 307 305 303 301 297 293 289 283 274 272 273 270 266 259 251 251 247 238 235 234 237 236 234 234 235 233 234
304 304 305 305 305 304 303 302 301 301 301 301 302 303 304 303 301 301 301 299 297 292 289 285 279 276 273 269 267 268 264 258 252 245 237 231 232 232 232 234 235 237 234
305 303 301 301 299 299 299 298 298 298 296 296 296 296 296 296 295 295 296 295 293 290 289 285 282 281 280 275 270 270 269 259 255 255 244 232 231 232 231 232 234 235 238
Height
1481 1480 1478 1477 1477 1476 1476 1475 1474 1474 1474 1474 1474 1474 1474 1474 1474 1474 1475 1475 1476 1476 1477 1478 1479 1480 1481 1482 1483 1485 1486 1487 1487 1487 1488 1489 1490 1491 1492 1493 1495 1496 1497
1478 1476 1475 1474 1473 1472 1471 1471 1470 1469 1469 1469 1469 1468 1468 1468 1468 1469 1469 1470 1471 1471 1471 1472 1473 1474 1475 1476 1477 1479 1480 1481 1482 1482 1483 1484 1485 1486 1487 1488 1490 1491 1492
1475 1473 1472 1470 1469 1468 1467 1466 1466 1465 1464 1464 1463 1463 1463 1463 1463 1463 1464 1464 1465 1465 1465 1466 1468 1469 1470 1471 1472 1473 1475 1476 1477 1478 1478 1479 1480 1481 1483 1483 1485 1486 1487
1472 1470 1468 1466 1465 1464 1463 1462 1461 1460 1459 1459 1458 1458 1458 1457 1457 1458 1458 1459 1459 1459 1460 1461 1462 1463 1464 1465 1467 1468 1469 1471 1472 1473 1473 1474 1475 1476 1478 1479 1480 1481 1482
1468 1466 1464 1463 1461 1459 1458 1457 1456 1455 1454 1454 1453 1453 1452 1452 1452 1452 1452 1453 1453 1453 1454 1455 1456 1457 1459 1460 1461 1463 1464 1465 1466 1467 1468 1469 1470 1471 1473 1474 1475 1476 1477
1465 1463 1461 1459 1457 1455 1454 1452 1451 1450 1450 1449 1448 1447 1447 1447 1447 1447 1447 1447 1447 1448 1448 1449 1450 1451 1453 1454 1456 1457 1459 1460 1461 1462 1462 1464 1465 1467 1468 1469 1470 1471 1471
1462 1459 1457 1455 1453 1451 1449 1448 1447 1446 1445 1444 1443 1442 1441 1441 1441 1441 1441 1442 1442 1442 1443 1444 1444 1446 1447 1448 1450 1451 1452 1454 1456 1457 1457 1458 1460 1461 1463 1464 1465 1465 1465
1458 1456 1454 1451 1449 1447 1445 1443 1442 1441 1440 1439 1438 1437 1436 1436 1436 1436 1437 1437 1437 1437 1437 1438 1439 1440 1441 1443 1444 1445 1446 1448 1449 1450 1452 1452 1454 1456 1457 1459 1459 1460 1460
1455 1453 1450 1448 1445 1443 1441 1439 1438 1436 1435 1434 1433 1432 1432 1431 1431 1432 1432 1432 1431 1432 1432 1433 1434 1435 1436 1438 1439 1440 1441 1442 1443 1444 1445 1446 1448 1450 1451 1453 1454 1455 1455
1452 1449 1447 1444 1441 1439 1437 1435 1434 1432 1431 1429 1428 1428 1427 1427 1427 1427 1427 1427 1427 1427 1427 1427 1428 1429 1431 1432 1434 1434 1435 1436 1437 1438 1439 1440 1442 1444 1445 1447 1449 1450 1450
1449 1446 1444 1441 1438 1436 1433 1432 1430 1428 1426 1425 1424 1423 1423 1422 1422 1422 1422 1422 1422 1422 1422 1422 1423 1424 1425 1427 1428 1429 1430 1432 1432 1433 1433 1435 1436 1438 1439 1441 1443 1445 1445
1446 1443 1440 1438 1435 1432 1430 1428 1426 1424 1422 1421 1420 1419 1419 1418 1418 1417 1417 1418 1418 1418 1417 1418 1418 1419 1420 1422 1423 1424 1425 1427 1427 1428 1428 1429 1430 1432 1433 1435 1437 1438 1439
1444 1441 1437 1435 1432 1429 1427 1424 1422 1420 1419 1417 1416 1415 1415 1414 1414 1414 1413 1413 1413 1414 1413 1414 1414 1415 1415 1417 1418 1419 1420 1421 1422 1422 1423 1424 1425 1427 1428 1430 1431 1432 1433
1441 1438 1435 1432 1429 1426 1424 1421 1419 1417 1416 1414 1413 1412 1411 1411 1410 1410 1409 1409 1409 1409 1410 1410 1411 1411 1411 1412 1413 1414 1415 1416 1416 1417 1418 1419 1421 1422 1423 1424 1426 1426 1428
1438 1435 1432 1430 1427 1424 1421 1419 1416 1415 1414 1412 1411 1409 1408 1407 1407 1407 1406 1406 1406 1406 1406 1406 1406 1407 1407 1407 1408 1409 1410 1411 1412 1413 1414 1415 1416 1417 1418 1419 1420 1421 1422
1436 1433 1430 1427 1424 1422 1419 1417 1414 1413 1411 1409 1408 1407 1406 1405 1404 1404 1403 1403 1402 1402 1403 1402 1402 1403 1403 1403 1404 1404 1405 1406 1407 1408 1409 1410 1411 1412 1413 1414 1415 1416 1417
1434 1431 1428 1425 1422 1420 1417 1414 1412 1410 1408 1407 1405 1404 1403 1402 1401 1400 1400 1399 1399 1399 1399 1399 1399 1399 1400 1400 1401 1401 1402 1402 1403 1404 1405 1406 1407 1407 1408 1409 1410 1411 1412
1432 1429 1426 1423 1420 1418 1415 1412 1410 1408 1406 1404 1403 1401 1400 1399 1398 1397 1397 1397 1396 1395 1395 1395 1396 1396 1396 1397 1397 1398 1398 1398 1399 1400 1401 1402 1402 1403 1404 1405 1405 1406 1407
1429 1426 1424 1421 1418 1416 1413 1411 1409 1406 1404 1402 1401 1399 1398 1397 1396 1395 1394 1394 1393 1393 1393 1393 1393 1394 1394 1394 1395 1395 1395 1395 1396 1396 1397 1398 1399 1399 1400 1400 1401 1402 1402
1427 1424 1422 1419 1416 1414 1411 1409 1407 1405 1403 1401 1399 1397 1396 1395 1394 1393 1392 1391 1391 1391 1390 1390 1391 1391 1391 1391 1392 1392 1392 1392 1393 1393 1394 1394 1395 1396 1396 1397 1397 1398 1398
1424 1422 1419 1417 1414 1412 1409 1407 1405 1403 1401 1399 1397 1396 1395 1393 1392 1391 1390 1389 1389 1388 1388 1388 1388 1388 1388 1389 1389 1389 1389 1389 1390 1390 1391 1391 1392 1392 1393 1394 1394 1394 1395
1422 1420 1417 1414 1412 1409 1407 1405 1403 1401 1399 1397 1395 1394 1393 1391 1390 1389 1388 1387 1387 1386 1386 1386 1386 1386 1386 1386 1386 1386 1386 1387 1387 1387 1387 1388 1388 1389 1390 1390 1390 1391 1391
1420 1417 1415 1412 1410 1407 1405 1403 1401 1399 1397 1395 1393 1392 1390 1389 1388 1387 1386 1385 1385 1384 1384 1383 1383 1383 1383 1383 1384 1384 1384 1384 1384 1385 1385 1385 1385 1386 1386 1387 1387 1387 1387
1418 1415 1413 1410 1407 1405 1403 1401 1399 1397 1395 1393 1391 1390 1388 1387 1386 1385 1384 1383 1382 1381 1381 1380 1380 1380 1380 1381 1381 1381 1381 1381 1382 1382 1382 1382 1382 1382 1383 1383 1384 1384 1384
1416 1413 1410 1408 1405 1403 1400 1398 1396 1394 1392 1391 1389 1387 1386 1384 1383 1382 1381 1380 1379 1379 1378 1377 1377 1377 1377 1377 1378 1378 1378 1378 1379 1379 1379 1379 1379 1380 1380 1380 1380 1380 1381
1413 1410 1408 1405 1402 1400 1398 1396 1394 1392 1390 1388 1386 1385 1383 1382 1380 1379 1378 1377 1376 1375 1375 1374 1374 1374 1374 1374 1374 1375 1375 1375 1375 1376 1376 1376 1376 1377 1377 1377 1377 1377 1377